This is the latest recevied weather packets stored in our database for station/object KQ4UWH. If no packets are shown the sender has not sent any weather packets the latest 10 day(s).
| Time | Temp. | Humidity | Pressure | Rain* | Wind** | Luminosity | Snow |
|---|---|---|---|---|---|---|---|
| 1777579881 | 21.67° C | 54% | 1239.7 hPa | 0 mm | - | 492 W/m² | - |
| 1777579580 | 21.67° C | 52% | 1239.7 hPa | 0 mm | - | 431 W/m² | - |
| 1777579280 | 21.11° C | 54% | 1239.7 hPa | 0 mm | - | 252 W/m² | - |
| 1777578976 | 21.11° C | 52% | 1239.7 hPa | 0 mm | - | 240 W/m² | - |
| 1777578671 | 21.11° C | 52% | 1239.7 hPa | 0 mm | - | 267 W/m² | - |
| 1777578370 | 21.11° C | 55% | 1239.7 hPa | 0 mm | - | 345 W/m² | - |
| 1777578066 | 21.67° C | 53% | 1239.7 hPa | 0 mm | - | 241 W/m² | - |
| 1777577761 | 21.67° C | 54% | 1239.7 hPa | 0 mm | - | 420 W/m² | - |
| 1777577458 | 21.67° C | 57% | 1239.7 hPa | 0 mm | - | 392 W/m² | - |
| 1777577155 | 21.67° C | 55% | 1239.7 hPa | 0 mm | - | 290 W/m² | - |
| 1777576851 | 21.67° C | 56% | 1239.7 hPa | 0 mm | - | 333 W/m² | - |
| 1777576550 | 21.67° C | 55% | 1239.7 hPa | 0 mm | - | 340 W/m² | - |
| 1777576247 | 21.11° C | 58% | 1239.7 hPa | 0 mm | - | 338 W/m² | - |
| 1777575943 | 21.11° C | 57% | 1239.7 hPa | 0 mm | - | 280 W/m² | - |
| 1777575639 | 21.11° C | 57% | 1239.7 hPa | 0 mm | - | 285 W/m² | - |
| 1777575336 | 21.11° C | 57% | 1239.7 hPa | 0 mm | - | 269 W/m² | - |
| 1777575032 | 21.11° C | 56% | 1239.7 hPa | 0 mm | - | 310 W/m² | - |
| 1777574728 | 21.67° C | 56% | 1239.7 hPa | 0 mm | - | 332 W/m² | - |
| 1777574426 | 21.11° C | 56% | 1239.7 hPa | 0 mm | - | 284 W/m² | - |
| 1777574121 | 21.11° C | 56% | 1239.7 hPa | 0 mm | - | 275 W/m² | - |
| 1777573816 | 21.11° C | 56% | 1239.7 hPa | 0 mm | - | 350 W/m² | - |
| 1777573512 | 21.11° C | 55% | 1239.7 hPa | 0 mm | - | 371 W/m² | - |
| 1777573208 | 21.11° C | 54% | 1239.7 hPa | 0 mm | - | 384 W/m² | - |
| 1777572905 | 21.11° C | 54% | 1239.7 hPa | 0 mm | - | 347 W/m² | - |
| 1777572600 | 21.11° C | 58% | 1239.7 hPa | 0 mm | - | 373 W/m² | - |
* Rain latest hour (hover to see other rain measurements)
** Current wind speed in m/s (hover to see current wind gust speed)